Location: Bacharowice
(49.9333°N, 19.5833°E)
Time: 14:14:22
(UTC+00:00)

SOZ - Pass Details

Date: 03 October 2021
Orbit: 306 x 16685 km, 52.1° (Epoch: 27 October)

Event Time Altitude Azimuth Distance (km) Brightness Sun altitude
Rises 21:10:00 0° 171° (S) 22,157 13.0 -41.3°
Reaches altitude 10° 21:42:54 10° 169° (SSE) 20,117 12.7 -43.3°
Enters shadow 21:44:18 10° 168° (SSE) 19,992 12.7 -43.4°
Exits shadow 22:43:47 33° 150° (SSE) 11,414 11.4 -44.3°
Maximum altitude 22:59:54 38° 127° (SE) 8,056 10.8 -44.0°
Drops below altitude 10° 23:18:35 10° 69° (ENE) 5,664 10.7 -43.3°
Sets 23:21:31 0° 61° (ENE) 5,867 11.0 -43.2°
